Time,TemperatureF,DewpointF,PressureIn,WindDirection,WindDirectionDegrees,WindSpeedMPH,WindSpeedGustMPH,Humidity,HourlyPrecipIn,Conditions,Clouds,dailyrainin,SoftwareType,DateUTC
2013-05-02 00:00:00,53.0,-99.9,-100.00,NW,317,2.0,-999.0,-999,-99.99,,,-99.99,,2013-05-02 07:00:00,
2013-05-02 01:00:00,53.0,-99.9,-100.00,NNW,335,2.0,-999.0,-999,-99.99,,,-99.99,,2013-05-02 08:00:00,
2013-05-02 02:00:00,52.0,-99.9,-100.00,North,10,3.0,-999.0,-999,-99.99,,,-99.99,,2013-05-02 09:00:00,
2013-05-02 03:00:00,51.0,-99.9,-100.00,NW,316,3.0,-999.0,-999,-99.99,,,-99.99,,2013-05-02 10:00:00,
2013-05-02 04:00:00,50.0,-99.9,-100.00,NW,320,3.0,-999.0,-999,-99.99,,,-99.99,,2013-05-02 11:00:00,
2013-05-02 05:00:00,49.0,-99.9,-100.00,NNW,327,3.0,-999.0,-999,-99.99,,,-99.99,,2013-05-02 12:00:00,
2013-05-02 06:00:00,49.0,-99.9,-100.00,NW,326,5.0,-999.0,-999,-99.99,,,-99.99,,2013-05-02 13:00:00,
2013-05-02 07:00:00,51.0,-99.9,-100.00,NNE,16,3.0,-999.0,-999,-99.99,,,-99.99,,2013-05-02 14:00:00,
2013-05-02 08:00:00,55.0,-99.9,-100.00,North,360,3.0,-999.0,-999,-99.99,,,-99.99,,2013-05-02 15:00:00,
2013-05-02 09:00:00,59.0,-99.9,-100.00,WNW,301,2.0,-999.0,-999,-99.99,,,-99.99,,2013-05-02 16:00:00,
2013-05-02 10:00:00,61.0,-99.9,-100.00,NNW,333,3.0,-999.0,-999,-99.99,,,-99.99,,2013-05-02 17:00:00,
2013-05-02 11:00:00,61.0,-99.9,-100.00,NW,307,6.0,-999.0,-999,-99.99,,,-99.99,,2013-05-02 18:00:00,
2013-05-02 12:00:00,64.0,-99.9,-100.00,WNW,291,6.0,-999.0,-999,-99.99,,,-99.99,,2013-05-02 19:00:00,
2013-05-02 13:00:00,65.0,-99.9,-100.00,NW,306,8.0,-999.0,-999,-99.99,,,-99.99,,2013-05-02 20:00:00,
2013-05-02 14:00:00,66.0,-99.9,-100.00,NW,313,9.0,-999.0,-999,-99.99,,,-99.99,,2013-05-02 21:00:00,
2013-05-02 15:00:00,66.0,-99.9,-100.00,NW,308,9.0,-999.0,-999,-99.99,,,-99.99,,2013-05-02 22:00:00,
2013-05-02 16:00:00,64.0,-99.9,-100.00,NW,319,12.0,-999.0,-999,-99.99,,,-99.99,,2013-05-02 23:00:00,
2013-05-02 17:00:00,63.0,-99.9,-100.00,NW,317,9.0,-999.0,-999,-99.99,,,-99.99,,2013-05-03 00:00:00,
2013-05-02 18:00:00,63.0,-99.9,-100.00,NNW,336,8.0,-999.0,-999,-99.99,,,-99.99,,2013-05-03 01:00:00,
2013-05-02 19:00:00,63.0,-99.9,-100.00,NNW,330,7.0,-999.0,-999,-99.99,,,-99.99,,2013-05-03 02:00:00,
2013-05-02 20:00:00,61.0,-99.9,-100.00,North,353,7.0,-999.0,-999,-99.99,,,-99.99,,2013-05-03 03:00:00,
2013-05-02 21:00:00,59.0,-99.9,-100.00,North,351,6.0,-999.0,-999,-99.99,,,-99.99,,2013-05-03 04:00:00,
2013-05-02 22:00:00,57.0,-99.9,-100.00,NNW,330,6.0,-999.0,-999,-99.99,,,-99.99,,2013-05-03 05:00:00,
2013-05-02 23:00:00,57.0,-99.9,-100.00,NNE,22,6.0,-999.0,-999,-99.99,,,-99.99,,2013-05-03 06:00:00,